| time (UTC) | temp C | wind direction | speed KPH | gust KPH | rain 1hr cm | rain 24hr cm | rain mn cm | humidity % | barometer mb |
| 20260906113049 | 23 | 264 | 0.0 | 6.4 | 0.00 | 0.00 | 0.00 | 90 | 1013.0 |
| 20260906111550 | 23 | 231 | 0.0 | 0.0 | 0.00 | 0.00 | 0.00 | 90 | 1013.0 |
| 20260906110053 | 23 | 235 | 0.0 | 3.2 | 0.00 | 0.00 | 0.00 | 90 | 1012.9 |
| 20260906104545 | 23 | 203 | 0.0 | 3.2 | 0.00 | 0.00 | 0.00 | 92 | 1012.7 |
| 20260906103100 | 23 | 274 | 0.0 | 1.6 | 0.00 | 0.00 | 0.00 | 93 | 1013.0 |
| 20260906101544 | 24 | 245 | 0.0 | 1.6 | 0.00 | 0.00 | 0.00 | 95 | 1012.9 |
| 20260906100042 | 23 | 245 | 0.0 | 0.0 | 0.00 | 0.00 | 0.00 | 95 | 1012.5 |
| 20260906094541 | 23 | 245 | 0.0 | 1.6 | 0.00 | 0.00 | 0.00 | 96 | 1012.6 |
| 20260906093041 | 23 | 210 | 0.0 | 1.6 | 0.00 | 0.00 | 0.00 | 97 | 1012.0 |
| 20260906091540 | 23 | 253 | 0.0 | 0.0 | 0.00 | 0.00 | 0.00 | 97 | 1011.7 |
| 20260906090056 | 23 | 253 | 0.0 | 3.2 | 0.00 | 0.00 | 0.00 | 97 | 1011.7 |
| 20260906084539 | 23 | 252 | 0.0 | 0.0 | 0.00 | 0.00 | 0.00 | 97 | 1011.5 |
| 20260906083039 | 23 | 252 | 0.0 | 0.0 | 0.00 | 0.00 | 0.00 | 97 | 1011.4 |
| 20260906081537 | 23 | 252 | 0.0 | 0.0 | 0.00 | 0.00 | 0.00 | 97 | 1011.3 |
| 20260906080037 | 23 | 252 | 0.0 | 0.0 | 0.00 | 0.00 | 0.00 | 97 | 1011.5 |
| 20260906074536 | 23 | 252 | 0.0 | 0.0 | 0.00 | 0.00 | 0.00 | 96 | 1011.3 |
| 20260906073045 | 23 | 252 | 0.0 | 0.0 | 0.00 | 0.00 | 0.00 | 96 | 1011.5 |
| 20260906071534 | 23 | 252 | 0.0 | 0.0 | 0.00 | 0.00 | 0.00 | 96 | 1011.3 |
| 20260906070037 | 23 | 252 | 0.0 | 0.0 | 0.00 | 0.00 | 0.00 | 96 | 1011.3 |
| 20260906064532 | 23 | 252 | 0.0 | 0.0 | 0.00 | 0.00 | 0.00 | 96 | 1011.4 |
| 20260906063042 | 23 | 252 | 0.0 | 0.0 | 0.00 | 0.00 | 0.00 | 95 | 1011.6 |
| 20260906061527 | 23 | 252 | 0.0 | 0.0 | 0.00 | 0.00 | 0.00 | 95 | 1011.8 |
| 20260906060024 | 23 | 252 | 0.0 | 0.0 | 0.00 | 0.00 | 0.00 | 95 | 1011.9 |
| 20260906054522 | 23 | 252 | 0.0 | 0.0 | 0.00 | 0.00 | 0.00 | 95 | 1011.9 |
| 20260906053023 | 24 | 252 | 0.0 | 0.0 | 0.00 | 0.00 | 0.00 | 95 | 1011.9 |
| 20260906051536 | 24 | 252 | 0.0 | 0.0 | 0.00 | 0.00 | 0.00 | 95 | 1011.8 |
| 20260906050016 | 24 | 252 | 0.0 | 0.0 | 0.00 | 0.00 | 0.00 | 94 | 1011.9 |
| 20260906044515 | 24 | 252 | 0.0 | 0.0 | 0.00 | 0.00 | 0.00 | 94 | 1011.9 |
| 20260906043017 | 24 | 252 | 0.0 | 0.0 | 0.00 | 0.00 | 0.00 | 94 | 1011.8 |
| 20260906041515 | 25 | 252 | 0.0 | 0.0 | 0.00 | 0.00 | 0.00 | 94 | 1011.8 |
| 20260906040028 | 25 | 252 | 0.0 | 0.0 | 0.00 | 0.00 | 0.00 | 93 | 1011.8 |
| 20260906034513 | 25 | 252 | 0.0 | 0.0 | 0.00 | 0.00 | 0.00 | 93 | 1011.6 |
| 20260906033014 | 25 | 252 | 0.0 | 0.0 | 0.00 | 0.00 | 0.00 | 92 | 1011.8 |
| 20260906031515 | 25 | 252 | 0.0 | 0.0 | 0.00 | 0.00 | 0.00 | 91 | 1011.6 |
| 20260906030013 | 26 | 252 | 0.0 | 0.0 | 0.00 | 0.00 | 0.00 | 91 | 1011.5 |
| 20260906024511 | 26 | 252 | 0.0 | 0.0 | 0.00 | 0.00 | 0.00 | 90 | 1011.5 |
| 20260906023011 | 26 | 252 | 0.0 | 0.0 | 0.00 | 0.00 | 0.00 | 89 | 1011.4 |
| 20260906021511 | 26 | 252 | 0.0 | 0.0 | 0.00 | 0.00 | 0.00 | 88 | 1011.3 |
| 20260906020017 | 27 | 252 | 0.0 | 0.0 | 0.00 | 0.00 | 0.00 | 87 | 1011.2 |
| 20260906014515 | 27 | 252 | 0.0 | 0.0 | 0.00 | 0.00 | 0.00 | 86 | 1011.2 |
| 20260906013013 | 27 | 252 | 0.0 | 0.0 | 0.00 | 0.00 | 0.00 | 84 | 1011.3 |
| 20260906011509 | 28 | 252 | 0.0 | 0.0 | 0.00 | 0.00 | 0.00 | 81 | 1011.0 |
| 20260906010008 | 28 | 252 | 0.0 | 0.0 | 0.00 | 0.00 | 0.00 | 80 | 1010.7 |
| 20260906004507 | 29 | 252 | 0.0 | 0.0 | 0.00 | 0.00 | 0.00 | 77 | 1010.7 |
| 20260906003008 | 30 | 252 | 0.0 | 0.0 | 0.00 | 0.00 | 0.00 | 73 | 1010.5 |
| 20260906001506 | 31 | 252 | 0.0 | 0.0 | 0.00 | 0.00 | 0.00 | 70 | 1010.5 |
| 20260906000006 | 32 | 252 | 0.0 | 0.0 | 0.00 | 0.00 | 0.00 | 68 | 1010.7 |
| 20260905234507 | 33 | 252 | 0.0 | 0.0 | 0.00 | 0.00 | 0.00 | 64 | 1010.6 |
| 20260905233007 | 33 | 251 | 0.0 | 0.0 | 0.00 | 0.00 | 0.00 | 61 | 1010.8 |
| 20260905231506 | 35 | 251 | 0.0 | 0.0 | 0.00 | 0.00 | 0.00 | 60 | 1010.7 |
| 20260905230004 | 35 | 251 | 0.0 | 0.0 | 0.00 | 0.00 | 0.00 | 56 | 1010.8 |
| 20260905224501 | 36 | 251 | 0.0 | 0.0 | 0.00 | 0.00 | 0.00 | 53 | 1010.8 |
| 20260905223001 | 36 | 252 | 0.0 | 1.6 | 0.00 | 0.00 | 0.00 | 50 | 1010.8 |
| 20260905221559 | 37 | 259 | 0.0 | 1.6 | 0.00 | 0.00 | 0.00 | 53 | 1011.0 |
| 20260905220110 | 37 | 257 | 0.0 | 3.2 | 0.00 | 0.00 | 0.00 | 50 | 1011.1 |
| 20260905214601 | 37 | 279 | 0.0 | 6.4 | 0.00 | 0.00 | 0.00 | 51 | 1011.2 |
| 20260905213058 | 37 | 321 | 1.6 | 4.8 | 0.00 | 0.00 | 0.00 | 52 | 1011.1 |
| 20260905211555 | 37 | 202 | 1.6 | 6.4 | 0.00 | 0.00 | 0.00 | 51 | 1011.3 |
| 20260905210104 | 37 | 264 | 0.0 | 6.4 | 0.00 | 0.00 | 0.00 | 50 | 1011.1 |
| 20260905204555 | 37 | 224 | 0.0 | 3.2 | 0.00 | 0.00 | 0.00 | 51 | 1011.2 |
| 20260905203104 | 37 | 285 | 0.0 | 8.0 | 0.00 | 0.00 | 0.00 | 54 | 1011.6 |
| 20260905201545 | 37 | 43 | 3.2 | 8.0 | 0.00 | 0.00 | 0.00 | 52 | 1011.7 |
| 20260905200043 | 36 | 24 | 1.6 | 8.0 | 0.00 | 0.00 | 0.00 | 56 | 1011.9 |
| 20260905194539 | 36 | 212 | 3.2 | 6.4 | 0.00 | 0.00 | 0.00 | 54 | 1012.2 |
| 20260905193038 | 37 | 323 | 1.6 | 9.7 | 0.00 | 0.00 | 0.00 | 52 | 1012.5 |
| 20260905191540 | 36 | 333 | 0.0 | 4.8 | 0.00 | 0.00 | 0.00 | 51 | 1012.5 |
| 20260905190033 | 36 | 300 | 0.0 | 9.7 | 0.00 | 0.00 | 0.00 | 56 | 1012.9 |
| 20260905184531 | 36 | 22 | 0.0 | 6.4 | 0.00 | 0.00 | 0.00 | 52 | 1013.0 |
| 20260905183029 | 36 | 47 | 1.6 | 8.0 | 0.00 | 0.00 | 0.00 | 53 | 1013.2 |
| 20260905181527 | 36 | 319 | 1.6 | 8.0 | 0.00 | 0.00 | 0.00 | 56 | 1013.2 |
| 20260905180025 | 35 | 305 | 1.6 | 6.4 | 0.00 | 0.00 | 0.00 | 55 | 1013.3 |
| 20260905174524 | 35 | 312 | 1.6 | 6.4 | 0.00 | 0.00 | 0.00 | 57 | 1013.2 |
| 20260905173022 | 35 | 328 | 3.2 | 8.0 | 0.00 | 0.00 | 0.00 | 57 | 1013.5 |
| 20260905171528 | 35 | 227 | 1.6 | 3.2 | 0.00 | 0.00 | 0.00 | 58 | 1013.6 |
| 20260905170022 | 35 | 218 | 1.6 | 4.8 | 0.00 | 0.00 | 0.00 | 60 | 1013.9 |
| 20260905164518 | 35 | 251 | 0.0 | 6.4 | 0.00 | 0.00 | 0.00 | 61 | 1014.1 |
| 20260905163021 | 35 | 230 | 0.0 | 3.2 | 0.00 | 0.00 | 0.00 | 61 | 1014.2 |
| 20260905161517 | 35 | 356 | 0.0 | 8.0 | 0.00 | 0.00 | 0.00 | 60 | 1014.3 |
| 20260905160015 | 35 | 219 | 0.0 | 6.4 | 0.00 | 0.00 | 0.00 | 61 | 1014.5 |
| 20260905154513 | 35 | 284 | 0.0 | 3.2 | 0.00 | 0.00 | 0.00 | 62 | 1014.3 |
| 20260905153014 | 35 | 241 | 0.0 | 3.2 | 0.00 | 0.00 | 0.00 | 63 | 1014.5 |
| 20260905151508 | 33 | 250 | 0.0 | 0.0 | 0.00 | 0.00 | 0.00 | 66 | 1014.4 |
| 20260905150005 | 33 | 287 | 0.0 | 3.2 | 0.00 | 0.00 | 0.00 | 70 | 1014.5 |
| 20260905144606 | 33 | 252 | 0.0 | 1.6 | 0.00 | 0.00 | 0.00 | 71 | 1014.4 |
| 20260905143103 | 32 | 252 | 0.0 | 1.6 | 0.00 | 0.00 | 0.00 | 76 | 1014.4 |
| 20260905141551 | 29 | 252 | 0.0 | 0.0 | 0.00 | 0.00 | 0.00 | 86 | 1014.5 |
| 20260905140047 | 27 | 252 | 0.0 | 0.0 | 0.00 | 0.00 | 0.00 | 91 | 1014.5 |
| 20260905134542 | 26 | 252 | 0.0 | 0.0 | 0.00 | 0.00 | 0.00 | 95 | 1014.4 |
| 20260905133038 | 25 | 252 | 0.0 | 0.0 | 0.00 | 0.00 | 0.00 | 99 | 1014.6 |
| 20260905131538 | 23 | 252 | 0.0 | 0.0 | 0.00 | 0.00 | 0.00 | 99 | 1014.5 |
| 20260905130034 | 23 | 252 | 0.0 | 0.0 | 0.00 | 0.00 | 0.00 | 100 | 1014.3 |
| 20260905124535 | 22 | 252 | 0.0 | 0.0 | 0.00 | 0.00 | 0.00 | 100 | 1014.3 |
| 20260905123038 | 22 | 252 | 0.0 | 0.0 | 0.00 | 0.00 | 0.00 | 99 | 1014.3 |
| 20260905121537 | 22 | 252 | 0.0 | 0.0 | 0.00 | 0.00 | 0.00 | 99 | 1014.2 |
| 20260905120036 | 22 | 252 | 0.0 | 0.0 | 0.00 | 0.00 | 0.00 | 99 | 1014.1 |
| 20260905114529 | 22 | 252 | 0.0 | 0.0 | 0.00 | 0.00 | 0.00 | 99 | 1014.0 |